Showing default

CAPELLA-18 (ACADIA), 67385

Orbit data source: Space-Track

CAPELLA-18 (ACADIA), 67385 is a payload satellite owned by Capella Space (US) in SSO that was launched on Sun, 11 Jan 2026 UTC via an FALCON 9 launch vehicle from the Air Force Western Test Range (AFWTR). Payload-class satellites include a variety of spacecraft equipped with specific instruments for various scientific and technological missions. These include communications satellites like Starlink; space stations such as the ISS; scientific satellites like the Hubble; Earth observation satellites from companies like Planet Labs, Umbra, and HawkEye 360; GPS; miniature CubeSats for education and research; and military/defense satellites.

Loading next visibility...
Identifier
67385, 2026-004Y
Orbit
SSO
Country
Flag of USUS
Related business
Manufacturer
Capella Space
Mission
Operational spacecraft
Bus & Motor
ACADIA, Unknown motor
Mass
180 kg wet, ~150 kg dry
Launch date (UTC)
2026-01-11 (3 months ago)
Launch vehicle
FALCON 9
Launch site
Air Force Western Test Range (AFWTR)
Object type
Payload
Rocket body
Debris
Shape & HBR
Unknown shape, 1.2 m
Radar Cross Section
RCS unknown

Expand to show TLE details & history
Last TLE update: 7 hours ago

TLE from 7 hours ago
0 CAPELLA-18 (ACADIA)
1 67385U 26004Y   26102.25482383  .00002090  00000-0  24156-3 0  9999
2 67385  97.8023 101.9596 0001530  97.7987 262.3402 14.86624796 13485
Epoch: 2026-04-12T06:06Z
TLE epoch observation values (Epoch: 2026-04-12T06:06:56.778Z)
Latitude
-0.00011°
Longitude
169.76063°
Altitude
611.667 km
Speed
7.553 km/s
True Right ascension
06h 47m 50s
True Declination
0° 00' 00"
Sunlit
Object was in daylight at epoch
Visualization orbit readout
Latitude
Unknown
Longitude
Unknown
Altitude
Unknown
Speed
Unknown
Apparent Right ascension
Unknown
Apparent Declination
Unknown
Sunlit
N/A
Visualization observer readout
Local Sidereal Time
19:21:08
Azimuth
Unknown
Elevation
Unknown
Doppler factor
Unknown
Orbital elements
Apogee altitude
606.587 km
Perigee altitude
604.45 km
Semi-major axis
6,983.655 km
Eccentricity
0.00015
Inclination
97.8023°
RAAN
101.9596°
Arg. of periapsis
97.7987°
True anomaly
262.32282°
Mean anomaly
262.3402°
Eccentric anomaly
262.33151°
Mean motion
3.71894 °/min
Orbital period
96.8 mins
BSTAR
0.00024156
Loading maneuver chart data...
Computing Atmospheric mass density...
Loading historical data...
Loading historical data...
Loading historical data...
Loading historical data...
Loading historical data...
Loading historical data...
Loading historical data...

Documentation

Showing up to 5 results
|